Overview Statistics Trail Chart Weather Telemetry Raw packets
 

This is the latest recevied weather packets stored in our database for station/object SP3ZBZ-13. If no packets are shown the sender has not sent any weather packets the latest 10 day(s).

<< 1 2 3 4 5 6 7 >>
Time Temp. Humidity Pressure Rain* Wind** Luminosity Snow
1788551732 17.78° C 92% 1000 hPa 3.81 mm - - -
1788550832 17.78° C 92% 1000.2 hPa 3.81 mm - - -
1788549930 17.78° C 92% 1000.4 hPa 3.81 mm - - -
1788549029 17.78° C 90% 1000.4 hPa 3.81 mm - - -
1788548128 17.78° C 91% 1000 hPa 3.81 mm - - -
1788547227 17.78° C 89% 999.2 hPa 3.81 mm - - -
1788546327 17.78° C 87% 1000 hPa 3.81 mm - - -
1788545425 17.78° C 86% 999.7 hPa 3.81 mm - - -
1788544525 18.33° C 86% 999.5 hPa 3.81 mm - - -
1788543623 18.33° C 89% 999.2 hPa 3.81 mm - - -
1788542722 18.33° C 91% 999.4 hPa 3.81 mm - 3 W/m² -
1788541821 18.33° C 92% 999 hPa 3.81 mm - 12 W/m² -
1788540920 18.33° C 90% 998.7 hPa 3.81 mm - 21 W/m² -
1788540018 18.33° C 90% 998.2 hPa 3.81 mm - 33 W/m² -
1788539117 18.33° C 88% 998.4 hPa 3.56 mm - 28 W/m² -
1788537311 23.33° C 69% 996.5 hPa 0.51 mm - 31 W/m² -
1788536410 22.78° C 69% 996.5 hPa 0.51 mm - 106 W/m² -
1788535509 22.78° C 70% 997 hPa 0.51 mm - 98 W/m² -
1788534608 22.78° C 70% 997.3 hPa 0.51 mm - 145 W/m² -
1788533707 22.78° C 71% 997.6 hPa 0.51 mm - 33 W/m² -
1788532806 22.78° C 70% 997.9 hPa 0.51 mm - 65 W/m² -
1788531905 22.22° C 73% 998.5 hPa 0.51 mm - 49 W/m² -
1788531004 22.22° C 73% 998.6 hPa 0.51 mm - 64 W/m² -
1788530103 21.67° C 73% 998.9 hPa 0.51 mm - 57 W/m² -
1788529202 21.67° C 75% 999.2 hPa 0.51 mm - 116 W/m² -

* Rain latest 24 hours (hover to see other rain measurements)
** Current wind speed in m/s (hover to see current wind gust speed)